Погода в Первомайском

Россия / Челябинская область     54°51′59″N   61°10′13″E
темп.,
°C
ветер,
м/с
пор.,
м/с
влажн.,
%
обл.,
%
осадки,
мм/ч
давл.,
гПа
погр.,
м
16 мая, вс
вс1623:00+20зюз5104912 0.0 1022153
02:00+18з375415 0.0 102197
05:00+18зсз345117 0.0 102245
08:00+23з454514 0.0 1021203
11:00+29зсз333141 0.0 1021998
14:00+31зюз352158 0.0 10203018
17:00+31зюз46205 0.0 10203157
20:00+22ссз485119 0.0 1020158
17 мая, пн
пн1723:00+19зсз33505 0.0 102025
02:00+19зсз22526 0.0 102015
05:00+18з335220 0.0 102122
08:00+23з33410 0.0 1021174
11:00+29з35250 0.0 10202717
14:00+31з562182 0.0 10183628
17:00+29юз572622 0.0 10182350
20:00+21юз4751100 0.1 1018111
18 мая, вт
вт1823:00+20зюз51153100 0.2 1018168
02:00+18з486027 0.0 1017124
05:00+17зсз41053100 0.0 1017157
08:00+22сз5105048 0.0 1017445
11:00+26сз68402 0.0 10161696
14:00+27сз79293 0.0 10152564
17:00+26ссз89304 0.0 10152669
20:00+19ссв913560 0.0 1017854
19 мая, ср
ср1923:00+13ссв812710 0.0 1021654
02:00+12св71067100 0.0 1023965
05:00+10ссв58740 0.0 1024525
08:00+12св68650 0.0 1025782
11:00+16св45475 0.0 10251171
14:00+19всв5535100 0.0 10241385
17:00+19всв4434100 0.0 10241375
20:00+16св3449100 0.0 102466
20 мая, чт
чт2023:00+12всв33530 0.0 102519
02:00+10вюв33584 0.0 102525
05:00+9юз33635 0.0 102622
08:00+15юз34485 0.0 1026316
11:00+20юз33345 0.0 10251123
14:00+23ююз442811 0.0 10231580
17:00+24юз34255 0.0 10221677
20:00+20юз33395 0.0 102124